Regional Weather Roundup
Issued by NWS

Home | Current Version | Previous Version | Graphics & Text | Print | Product List | Glossary On
Versions: 1 2 3 4 5 6 7 8 9 10 11 12 13 14 15 16 17 18 19 20 21 22 23 24 25 26 27 28 29 30 31 32 33 34 35 36 37 38 39 40
000
ASUS45 KBOU 280307
RWRCO

WEATHER ROUNDUP FOR COLORADO
NATIONAL WEATHER SERVICE DENVER/BOULDER CO
800 PM MST SAT DEC 27 2014

NOTE: "FAIR" INDICATES FEW OR NO CLOUDS BELOW 12000 FEET WITH NO
SIGNIFICANT WEATHER AND/OR OBSTRUCTIONS TO VISIBILITY.

COZ001>005-013-030-031-280400-
...NORTHWEST COLORADO...

CITY           SKY/WX    TMP DP  RH WIND       PRES   REMARKS
CRAIG          PTCLDY     2  -2  83 CALM      30.24S
HAYDEN         PTCLDY     3   1  92 E3        30.20F
MEEKER         MOCLDY     3  -3  76 CALM      30.24S
MOUNT WERNER   NOT AVBL
STEAMBOAT SPGS PTCLDY     1  -3  85 CALM      30.20S
WALDEN         MOCLDY     9   0  66 S14G21    30.07S WCI  -8
$$

COZ006>008-011-280400-
...WEST CENTRAL VALLEYS...

CITY           SKY/WX    TMP DP  RH WIND       PRES   REMARKS
GRAND JUNCTION PTCLDY    16  12  84 CALM      30.31S
MONTROSE       PTCLDY    16   9  74 S7        30.31R WCI   6
EAGLE          PTCLDY    10   3  72 E7        30.26R WCI   0
RIFLE          PTCLDY    11   4  73 S7        30.30R WCI   0
DELTA          PTCLDY    22  11  63 NE6       30.32S WCI  15
NUCLA          NOT AVBL
$$

COZ017>023-064>068-280400-
...SOUTHWEST COLORADO...

CITY           SKY/WX    TMP DP  RH WIND       PRES   REMARKS
DURANGO        CLEAR     12   8  84 CALM      30.25R
CORTEZ         CLEAR     13   7  77 E6        30.28S WCI   4
PAGOSA SPRINGS CLOUDY    10   8  92 CALM      30.21R
TELLURIDE      PTCLDY     8   3  79 SE7       30.18F WCI  -3
WOLF CREEK PAS   N/A      1   0  92 MISG      30.06R
$$

COZ009-010-012-014-032>034-037-058>063-280400-
...CENTRAL COLORADO...

CITY           SKY/WX    TMP DP  RH WIND       PRES   REMARKS
ASPEN          CLOUDY     6  -1  73 SW8       30.18S WCI  -7
BUENA VISTA    PTCLDY    10  -4  51 SW6       30.09R WCI   1
COPPER MTN     CLEAR      1  -6  71 CALM      29.99S
BERTHOUD PASS  FAIR      -6 -11  77 MISG      29.89R HAZE
COTTONWOOD PAS PTCLDY    14  -8  37 N7        30.01S WCI   4
GUNNISON       PTCLDY    -6 -18  54 CALM      30.24S
KREMMLING      CLEAR     -2  -6  84 CALM      30.19S
LEADVILLE      PTCLDY    -6 -11  79 N10       30.06S WCI -24
MONARCH PASS   CLOUDY    -4  -8  84 MISG      30.05F
SALIDA         PTCLDY    19   1  45 NW12G17   30.17S WCI   7
SUNLIGHT       PTCLDY   N/A N/A N/A CALM      30.09S
WILKERSON PASS MOCLDY     9 -13  37 W14G23    29.95S WCI  -8
$$

COZ069>075-280400-
...SAN LUIS VALLEY/SANGRE DE CRISTO MOUNTAINS...

CITY           SKY/WX    TMP DP  RH WIND       PRES   REMARKS
ALAMOSA        MOCLDY     4  -1  80 NW6       30.18R WCI  -7
LA VETA PASS   NOT AVBL
SAGUACHE       PTCLDY     0  -6  78 NW8       30.18S WCI -15
$$

COZ035-036-038>040-280400-
...NORTHERN COLORADO FRONT RANGE...

CITY           SKY/WX    TMP DP  RH WIND       PRES   REMARKS
DENVER INTL AP PTCLDY    18   9  68 SW9       30.05R WCI   7
DMNS CITY PARK   N/A     22  12  67 SE3       30.05S
AURORA         PTCLDY    17   8  67 S9        30.05S WCI   6
FRONT RANGE AP PTCLDY    16  10  79 S9        30.04F WCI   4
ERIE MUNI ARPT   N/A      6   4  90 SW6       30.07S WCI  -4
BOULDER MUN AP PTCLDY    16  12  86 CALM      30.07R
CENTENNIAL     MOCLDY    14   7  73 SE3       30.03S
BROOMFIELD     MOCLDY    16  10  79 N9        30.04S WCI   4
FORT COLLINS   PTCLDY    14   9  79 CALM      30.07F
LONGMONT       PTCLDY    13   8  80 S6        30.09S WCI   3
$$

COZ041-046-047-076>085-087-088-280400-
...PIKES PEAK/PALMER DIVIDE AND SOUTHERN FOOTHILLS...

CITY           SKY/WX    TMP DP  RH WIND       PRES   REMARKS
COLO. SPRINGS  MOCLDY    17   7  64 N3        30.07F
A. F. ACADEMY  MOCLDY    16   7  67 S2        30.05S
ELLICOTT       NOT AVBL
FALCON         MOCLDY    13   5  70 W6        30.05S WCI   3
FORT CARSON    MOCLDY    16  10  76 N3        30.07S
LIMON          PTCLDY     8   5  87 CALM      30.08F
MONUMENT HILL  PTCLDY    12   5  73 S9        30.00F WCI   0
TRINIDAD       PTCLDY     7   1  76 W8        30.09S WCI  -6
$$

COZ042>045-048>051-090-091-280400-
...NORTHEAST COLORADO...

CITY           SKY/WX    TMP DP  RH WIND       PRES   REMARKS
GREELEY ARPT   PTCLDY    -2  -9  71 NW6       30.07F WCI -14
AKRON          PTCLDY    16   6  65 S12       30.08F WCI   3
BURLINGTON     PTCLDY     5  -1  76 SW9       30.14F WCI  -9
WRAY           PTCLDY    14   9  79 W9        30.15S WCI   2
STERLING       PTCLDY     5   3  92 CALM      30.12S
HOLYOKE        PTCLDY     5   0  78 W9        30.14S WCI  -9
FORT MORGAN    PTCLDY    12   6  77 N5        30.10S WCI   4
$$

COZ086-089-092>099-280400-
...SOUTHEAST COLORADO...

CITY           SKY/WX    TMP DP  RH WIND       PRES   REMARKS
PUEBLO         PTCLDY    16  11  80 N7        30.11F WCI   6
LA JUNTA       PTCLDY    20  14  77 S3        30.14F
LAMAR          CLEAR     11   8  88 SW6       30.15S WCI   1
SPRINGFIELD      N/A     17  12  80 S9        30.14F WCI   6
$$


USA.gov is the U.S. government's official web portal to all federal, state and local government web resources and services.